Theta_e
299 299 298 298 297 296 296 295 294 294 293 293 292 292 292 292 291 290 291 291 289 288 287 286 285 284 284 283 282 283 282 283 282 283 283 282 283 282 282 282 282 282 282 282 281 280 280 280 280 281 281 281 280 280 281 281 281 281 281 281 280 279 279 281 281 282 279 278 280 280 280 281 281 282 282 282 283 284 284 283 283 284 287 285 285
298 297 298 297 297 297 296 295 294 292 293 293 293 292 292 292 291 290 290 290 289 288 288 286 286 285 284 284 284 284 283 283 282 282 282 282 282 282 282 282 282 282 282 281 281 280 280 279 280 280 280 280 280 280 280 281 281 280 280 279 280 279 278 280 281 280 277 277 276 276 277 280 282 282 282 283 284 284 283 282 282 282 284 284 283
295 296 296 296 297 297 296 295 294 294 293 293 293 292 292 291 291 291 290 290 289 288 288 287 287 286 285 285 285 284 285 285 284 284 283 282 282 282 282 281 281 281 281 281 280 280 279 279 279 280 280 280 279 279 279 279 280 279 279 278 278 279 279 281 280 280 277 278 277 275 274 275 278 280 282 283 282 282 282 281 282 281 282 283 282
294 294 295 296 296 296 296 296 296 295 294 293 293 292 292 291 291 291 290 290 289 289 288 288 287 287 287 286 286 285 284 284 283 283 282 282 280 281 281 281 281 281 281 281 280 279 279 279 279 279 279 280 279 278 278 279 279 279 279 279 278 276 277 278 281 280 279 277 272 274 274 274 272 276 278 280 281 280 281 281 281 280 281 281 282
293 294 294 295 295 295 295 296 296 295 295 294 293 292 291 291 291 291 290 290 289 289 288 288 287 286 285 285 285 283 283 282 281 280 280 280 280 280 280 280 281 280 280 280 280 279 279 279 279 279 279 279 279 278 278 278 279 279 279 278 278 277 276 277 279 280 279 279 276 273 272 272 273 276 276 276 279 279 280 280 280 280 279 280 280
294 294 294 295 295 295 295 295 295 294 294 294 294 293 293 292 292 291 291 290 289 289 288 287 286 284 283 282 281 281 280 280 279 279 279 278 278 280 280 280 280 280 280 280 280 280 279 279 279 278 278 278 278 278 278 278 278 278 278 278 278 278 277 276 275 278 279 278 278 277 276 272 272 274 274 271 278 279 279 279 279 279 280 279 279
294 294 294 294 294 294 295 294 295 294 294 295 294 294 293 293 292 291 290 290 289 289 288 287 285 284 283 283 282 281 281 281 282 282 281 281 281 280 280 280 280 279 279 279 279 279 279 278 278 278 278 278 278 278 277 277 278 278 278 278 278 278 277 274 274 275 277 278 278 277 277 277 276 273 271 273 271 276 277 278 278 279 278 278 278
293 293 294 294 294 294 293 294 294 294 295 295 294 293 293 292 292 291 290 290 289 289 288 287 285 284 284 283 282 282 281 281 282 283 283 282 281 280 280 280 280 279 278 279 279 278 278 278 278 278 278 278 278 277 277 277 278 278 278 278 278 278 277 275 274 275 274 274 278 277 277 277 277 276 275 272 271 269 272 276 277 277 278 278 279
293 293 293 293 293 294 294 294 295 295 295 294 294 294 293 292 292 291 290 289 289 289 288 287 285 284 284 283 282 283 282 282 283 283 283 282 280 280 279 279 279 279 279 278 278 278 278 278 278 277 277 277 278 277 277 277 277 277 277 277 277 277 277 276 275 274 274 274 275 275 276 275 275 275 275 274 271 270 271 272 273 276 277 277 277
293 293 294 294 294 294 295 295 295 295 295 294 294 293 293 293 292 291 290 290 289 289 288 287 286 285 283 283 282 282 283 283 283 282 282 281 279 279 279 279 278 278 278 278 277 278 277 278 277 277 277 277 277 277 277 277 277 277 277 277 277 276 276 276 275 275 275 276 276 276 274 275 274 273 273 273 273 273 270 271 273 272 272 275 277
292 293 293 294 294 294 295 294 294 294 294 294 293 293 292 292 292 290 290 289 289 289 288 287 286 285 283 283 282 282 282 282 281 281 281 280 279 279 278 278 278 278 278 277 277 277 277 277 277 277 277 277 277 276 276 276 276 276 277 277 276 275 275 275 276 275 275 275 275 275 274 274 273 272 273 273 273 272 272 272 273 274 273 272 274
292 293 293 293 293 294 294 293 293 293 293 293 292 292 292 292 291 290 290 289 289 289 288 287 286 285 284 283 282 282 282 281 281 280 280 280 279 279 279 278 278 277 277 277 277 276 276 276 277 277 276 276 276 276 276 276 276 276 276 276 275 275 275 275 274 274 274 274 274 275 275 275 275 274 274 274 273 273 272 271 271 273 273 273 275
292 292 292 292 292 292 292 292 292 292 291 292 292 292 292 291 291 289 289 289 289 289 288 287 286 285 284 284 283 283 282 281 281 280 281 280 280 279 279 278 277 276 276 276 276 276 275 275 276 276 276 276 276 276 276 276 276 276 276 275 275 274 274 274 274 274 274 273 273 275 275 275 274 275 276 274 274 273 272 271 272 273 270 271 273
292 292 292 292 292 292 292 292 291 291 291 291 291 291 291 290 290 289 288 289 288 288 288 287 287 285 285 284 283 283 282 282 281 281 281 280 280 280 279 278 277 276 276 275 276 276 276 276 276 276 276 276 276 276 275 276 276 275 275 274 274 274 274 274 274 274 274 274 274 273 274 274 274 275 275 275 273 272 272 271 270 271 271 270 272
292 291 291 292 292 292 292 291 291 291 291 291 291 291 291 290 290 289 288 288 288 287 287 286 286 286 285 284 284 283 282 282 281 281 281 280 280 280 280 278 277 277 276 276 277 276 276 276 276 276 276 276 276 275 275 275 275 275 275 274 274 274 274 274 274 273 273 273 273 273 273 273 274 275 275 274 274 273 273 272 271 268 269 270 270
291 291 291 292 292 292 292 291 291 291 291 291 290 290 290 289 289 289 288 288 288 288 287 286 286 285 285 285 284 283 283 282 282 281 281 281 280 279 279 278 277 277 276 276 276 276 275 275 275 275 276 275 275 275 275 275 274 274 274 274 273 275 274 273 273 273 273 273 273 273 272 273 274 274 274 274 274 274 273 273 272 270 267 266 269
290 290 291 291 291 291 291 290 290 291 290 290 290 290 289 289 289 288 288 288 288 288 287 287 286 285 285 284 284 283 282 281 281 281 281 281 280 280 279 277 277 276 276 276 275 275 275 275 275 275 275 275 275 275 274 274 274 274 273 273 273 274 273 273 273 273 273 273 272 272 272 272 273 274 274 274 274 274 273 273 273 271 270 267 266
290 290 291 291 291 291 291 291 291 291 290 290 290 290 290 290 289 288 288 287 287 287 287 287 286 285 285 284 284 283 282 282 282 281 281 280 280 279 279 277 276 276 275 275 275 275 274 275 274 274 274 274 274 274 274 274 274 273 273 273 273 273 273 273 273 273 273 273 273 272 272 272 273 273 273 274 273 273 273 272 272 272 271 268 268
289 289 290 290 290 290 290 290 290 291 291 290 290 290 290 289 289 288 287 288 287 287 287 286 286 286 286 284 284 283 283 282 282 281 281 280 279 278 277 276 276 276 275 274 274 274 274 273 273 273 274 273 274 273 273 273 273 272 272 272 273 272 272 272 272 273 273 273 273 272 272 272 272 272 272 273 273 273 272 272 272 272 271 271 269
289 289 289 290 290 290 289 289 289 290 290 290 290 290 289 289 289 288 288 288 288 287 287 286 286 286 285 285 284 284 283 283 282 281 280 280 279 278 277 276 275 275 274 274 274 273 273 273 273 273 273 273 273 273 273 273 272 272 272 272 272 272 271 271 272 272 273 273 272 272 272 272 272 272 272 272 272 272 272 272 272 271 272 272 271
288 288 289 289 289 289 288 289 289 289 290 289 289 288 289 289 289 289 288 287 287 287 287 286 286 285 285 285 284 284 283 283 282 281 280 280 279 278 278 276 275 274 274 273 273 273 273 273 273 273 273 272 272 272 272 272 272 271 271 271 272 271 271 271 272 272 272 272 272 271 271 272 273 271 272 272 272 272 272 271 271 271 270 271 270
288 289 289 288 288 288 288 289 289 289 288 288 288 288 288 288 288 288 288 287 287 287 287 286 286 286 285 285 284 284 283 283 282 281 280 279 279 278 277 276 274 274 274 274 273 273 273 273 272 272 272 272 272 272 272 272 271 271 271 271 271 271 271 271 271 271 272 272 272 271 271 271 272 271 271 271 271 271 271 270 270 270 270 270 271
288 288 287 287 287 288 288 288 288 287 287 287 288 288 288 288 288 288 287 287 288 287 287 286 286 285 285 285 285 284 283 283 282 281 280 279 278 277 277 275 274 273 274 274 273 273 272 272 272 272 272 272 272 271 271 271 271 270 270 270 271 270 270 270 270 271 271 271 271 270 270 271 271 270 270 270 271 271 271 270 270 272 271 270 271
288 287 286 287 287 287 286 286 286 286 286 286 287 287 287 287 287 287 287 287 287 287 287 286 286 285 285 285 284 284 283 282 281 280 280 279 278 277 276 274 274 273 273 273 273 273 272 272 272 272 272 271 271 271 271 271 270 270 270 270 270 270 270 270 270 270 270 271 271 270 270 271 270 270 270 270 270 270 270 270 271 271 271 270 271
286 286 286 286 286 286 285 286 285 285 285 285 285 286 287 286 287 287 287 287 287 287 286 285 285 284 284 283 283 283 282 282 281 280 279 279 278 277 276 274 273 273 272 272 272 272 272 272 271 271 271 271 271 270 270 270 270 270 270 270 270 270 270 270 270 270 271 270 271 270 270 270 270 270 270 270 270 270 270 270 270 271 270 270 270
285 285 285 285 285 285 285 285 285 285 285 284 285 286 286 286 286 287 285 286 286 286 286 284 284 283 283 283 283 283 282 282 281 279 278 278 277 276 275 274 273 272 272 272 272 271 271 271 271 271 271 271 271 270 270 270 270 270 270 270 269 269 269 269 269 270 270 270 270 270 270 270 270 269 269 270 270 270 270 270 270 270 271 270 270
284 284 284 284 284 283 284 284 284 284 284 284 285 285 285 285 285 285 285 285 285 285 284 284 283 283 283 282 282 282 282 281 280 278 277 277 277 276 274 273 272 272 271 271 271 271 271 271 271 271 271 270 270 270 270 269 269 269 269 269 269 268 268 268 269 269 270 270 271 270 270 271 270 270 269 269 269 269 269 269 270 270 270 270 269
284 284 283 283 283 283 283 284 284 284 284 284 285 285 284 284 283 284 284 285 285 284 284 283 283 282 282 282 282 282 282 280 279 277 276 276 275 275 274 273 272 271 271 271 271 270 271 271 271 271 270 270 270 269 269 269 269 269 269 268 268 268 267 268 268 269 269 269 270 270 270 270 270 270 269 269 269 269 269 269 270 270 270 269 269
283 283 282 283 283 283 283 283 283 283 282 281 282 282 283 283 283 284 284 284 284 283 282 282 282 281 281 281 282 282 279 278 277 276 276 275 274 274 273 272 272 271 271 271 271 271 270 270 270 270 270 270 269 269 269 269 268 268 268 267 267 267 267 267 267 268 268 268 269 269 269 269 270 271 271 271 271 271 269 269 269 270 269 269 269
282 282 282 282 282 282 282 281 281 280 279 279 279 280 280 281 281 282 282 282 282 281 281 280 280 280 281 281 281 280 278 277 276 275 275 275 274 273 272 271 271 271 271 271 270 270 270 269 269 269 269 268 268 268 270 271 271 268 267 267 267 266 267 267 267 267 267 268 268 268 268 270 270 271 271 272 272 272 272 271 270 270 269 269 269
281 281 281 282 282 281 280 279 279 279 278 279 279 278 279 279 280 280 280 280 280 279 279 279 279 279 280 280 280 278 277 276 276 275 275 274 273 272 271 271 270 270 270 270 270 269 269 269 269 268 268 267 268 268 270 271 272 272 268 266 266 266 266 266 266 266 266 267 268 268 268 269 270 271 270 272 273 273 273 273 273 273 272 270 269
280 281 281 281 280 279 278 277 277 277 278 278 277 277 278 278 278 278 278 278 278 278 277 277 278 278 279 279 278 277 276 276 275 275 274 273 272 271 270 270 269 269 269 269 269 268 268 268 268 267 267 267 267 269 271 271 272 272 271 267 265 265 265 265 266 266 266 267 267 268 268 268 269 269 270 270 272 273 274 274 274 274 274 274 273
280 280 280 279 279 278 277 277 277 276 276 277 277 276 276 277 276 277 277 276 276 276 276 276 277 278 277 277 277 276 276 275 275 274 273 272 271 270 269 269 268 269 269 268 268 268 267 267 267 266 266 266 266 269 270 271 271 272 272 271 267 265 265 265 265 266 266 266 267 267 268 269 269 271 271 271 271 272 274 274 275 275 275 275 275
280 280 279 278 278 277 277 276 276 277 277 276 276 275 275 275 275 275 275 275 275 275 276 275 274 274 275 276 276 276 275 275 274 274 273 271 270 269 269 269 269 268 268 267 267 267 267 266 266 266 266 265 265 268 270 271 271 271 272 271 269 267 265 266 266 266 266 266 267 267 268 269 270 270 271 271 271 271 272 272 273 273 274 275 276
279 278 277 276 276 275 275 275 275 275 275 274 274 275 274 273 273 273 273 274 274 275 274 273 273 274 274 275 275 275 274 273 272 273 272 271 270 269 269 268 268 267 267 266 266 266 266 266 265 265 265 264 264 268 269 270 271 271 271 271 268 268 267 266 267 267 267 267 268 268 269 269 270 271 272 272 272 272 272 272 272 272 273 274 274
278 277 276 275 275 275 274 274 274 273 273 273 273 273 271 271 272 272 273 273 273 272 272 273 272 271 271 272 271 271 271 271 271 271 271 270 269 269 268 268 268 267 267 267 267 266 265 265 265 264 264 263 264 268 269 270 270 270 271 268 268 268 268 267 267 268 268 268 269 269 269 270 271 272 273 276 275 274 273 272 271 272 272 273 274
277 276 275 275 275 275 274 273 272 272 272 272 272 271 270 271 271 271 272 272 271 271 269 267 267 268 269 269 270 269 269 270 270 269 269 270 269 268 268 268 267 267 266 266 266 266 266 265 264 264 263 263 263 266 268 269 270 270 270 267 267 267 267 268 268 268 269 269 270 270 271 271 272 272 275 276 277 276 273 272 271 271 271 272 272
275 275 275 275 274 273 273 272 271 271 272 271 270 270 270 269 270 271 270 270 269 266 266 265 266 267 268 268 268 268 269 269 269 268 269 269 270 269 268 268 267 266 266 266 265 265 265 265 264 263 263 262 263 265 267 268 269 270 269 267 267 266 266 267 267 268 269 269 270 272 272 272 272 273 275 277 277 276 273 272 271 270 270 270 271
274 273 272 273 272 272 271 271 270 270 270 269 269 268 268 268 269 267 267 266 266 265 264 264 264 265 267 267 267 267 268 268 268 268 268 269 269 268 268 267 267 266 266 266 265 264 264 264 264 263 264 263 262 263 266 268 269 269 268 267 267 266 266 266 267 267 269 269 270 271 273 273 273 274 276 277 278 277 274 272 272 271 270 269 270
272 272 272 272 272 270 269 269 269 268 268 268 267 267 267 267 265 265 264 263 263 264 264 264 264 265 266 266 266 266 267 267 268 268 268 269 269 269 268 267 266 266 266 266 265 264 263 263 264 263 262 263 262 262 263 266 267 268 270 267 267 266 265 266 267 268 268 269 270 271 273 275 276 276 277 277 278 278 275 274 273 272 271 270 272
271 271 271 270 270 269 268 268 268 267 267 267 267 266 265 264 264 262 262 262 262 263 263 263 263 263 263 263 264 265 265 266 266 266 268 268 268 268 267 266 265 265 265 265 264 264 263 263 263 263 263 262 262 261 262 266 267 268 269 269 267 266 266 267 267 268 269 269 270 271 272 275 276 277 277 277 278 278 277 275 274 273 273 274 275
271 271 270 269 268 268 268 267 266 266 266 266 266 265 263 262 261 261 261 261 261 261 261 261 261 261 262 262 263 263 264 264 265 266 267 267 268 268 267 266 265 265 264 263 263 263 262 262 262 262 262 262 262 263 262 264 267 268 269 270 268 268 268 268 268 268 269 270 271 272 273 275 276 277 277 277 278 278 278 276 275 277 277 278 276
268 268 269 268 267 266 265 265 265 265 265 265 265 263 262 261 260 260 261 261 260 260 260 260 260 261 261 261 262 263 263 264 264 266 267 266 266 266 265 265 264 263 263 262 261 261 261 261 261 261 262 262 262 262 264 263 265 268 269 270 271 270 272 270 269 269 270 271 272 273 274 275 276 276 276 277 277 277 277 276 277 277 277 278 277
268 268 267 267 266 265 264 264 264 264 264 264 263 261 260 259 259 260 260 260 259 259 259 259 259 260 260 260 261 262 263 263 264 266 266 265 265 265 264 264 263 263 262 261 261 261 260 260 260 260 261 262 262 262 264 265 265 267 269 270 271 272 273 271 271 270 271 272 272 273 273 274 275 275 276 276 276 276 275 276 277 276 277 277 276
267 266 267 266 264 263 263 262 263 262 263 263 262 259 258 258 259 260 259 258 258 258 258 258 258 259 259 260 260 261 262 263 265 266 265 264 264 263 263 263 262 262 262 261 261 261 260 260 260 260 261 262 263 263 263 265 267 267 269 270 271 272 273 273 271 271 272 272 273 274 274 274 274 275 275 275 275 275 275 275 274 274 275 274 274
266 266 265 265 264 263 262 261 261 262 262 262 261 259 257 258 259 259 258 258 258 257 257 257 258 258 258 259 260 261 263 264 265 266 265 265 264 263 263 262 262 261 261 261 261 260 260 260 260 261 261 262 264 264 265 265 267 268 269 270 271 272 272 273 273 273 274 274 274 274 274 274 274 274 273 273 272 271 272 273 273 272 271 272 272
264 265 264 263 262 261 260 259 259 261 261 261 259 259 258 259 258 258 258 258 257 257 257 257 257 257 258 259 260 261 262 263 265 265 265 264 264 263 263 262 261 261 261 260 260 260 260 260 260 261 262 263 264 264 265 266 267 268 268 269 270 270 272 272 272 272 273 272 273 272 272 272 272 273 272 272 271 270 270 270 269 270 270 270 270
264 264 263 262 261 259 258 258 258 259 261 260 258 258 258 258 258 257 257 257 256 256 256 256 257 258 259 260 260 261 262 263 264 265 264 263 264 263 262 262 261 261 260 260 259 259 260 260 260 261 262 263 264 265 266 267 268 268 269 269 269 269 269 269 270 271 271 271 270 271 270 269 269 268 268 268 268 268 268 268 268 268 268 269 270
263 263 262 261 260 258 258 258 258 259 260 258 258 258 258 257 257 257 257 256 256 256 256 256 257 258 259 260 261 261 262 262 263 264 264 263 263 263 262 262 263 263 262 261 260 261 261 261 261 262 262 263 264 265 266 269 269 270 269 268 268 268 269 269 270 271 269 269 269 268 268 268 267 267 267 267 267 266 266 265 263 264 266 267 267
263 262 262 261 260 258 257 257 258 259 258 257 257 257 257 257 257 257 256 255 255 255 256 256 257 258 259 259 260 261 262 263 263 263 263 263 263 265 264 262 262 263 264 265 264 262 262 262 262 263 264 265 266 267 269 270 270 270 270 270 270 270 270 270 271 272 270 268 268 267 267 267 267 267 266 267 267 266 265 265 265 266 266 266 266
262 260 260 259 259 258 257 257 258 258 257 257 256 256 256 256 257 257 256 255 255 255 255 256 257 257 259 260 260 261 262 263 263 263 262 261 261 262 265 266 265 264 265 266 267 267 266 266 264 263 265 268 268 269 269 270 270 271 271 271 271 271 271 272 272 270 268 267 266 266 266 266 265 265 265 264 263 263 263 263 263 263 264 265 265
Wind_Speed
4 5 3 2 2 2 3 4 5 7 8 9 9 9 10 10 9 12 10 9 8 8 9 8 8 8 8 10 10 9 9 10 9 9 9 9 9 9 9 8 8 9 8 8 8 7 7 7 8 8 7 8 8 8 8 9 8 7 6 7 8 9 8 8 8 7 8 9 9 10 10 11 13 12 11 8 7 5 5 5 5 5 5 4 4
4 5 8 4 1 2 2 3 4 6 6 7 8 9 9 9 11 11 9 10 10 10 9 9 9 9 8 9 9 9 9 9 9 9 9 9 10 10 9 9 9 9 9 9 9 9 8 8 8 8 8 8 8 9 9 9 8 8 7 7 7 9 8 7 6 6 7 7 9 9 9 9 8 7 7 6 5 4 4 6 5 5 6 4 4
8 9 9 10 10 7 3 3 3 4 6 7 7 8 9 8 9 10 9 10 10 11 10 10 10 10 10 10 9 8 9 8 8 8 8 9 9 10 10 9 10 10 10 10 9 9 9 9 8 8 9 8 8 9 9 10 8 9 10 8 7 7 8 7 7 6 7 7 8 9 8 8 6 6 5 4 2 4 5 6 6 6 6 5 4
8 10 11 11 11 9 9 9 8 5 5 6 7 7 6 7 8 9 9 10 10 11 11 12 12 11 10 11 11 10 8 7 8 8 8 9 10 10 10 10 11 10 11 11 9 9 10 10 9 9 9 9 9 9 9 10 9 9 9 9 9 8 7 7 7 7 5 5 5 4 7 7 8 3 5 6 7 9 7 5 5 5 6 6 5
8 10 10 10 10 11 11 10 10 8 7 8 8 7 6 8 9 9 9 9 9 10 11 10 9 10 9 8 8 9 8 8 8 9 10 10 10 10 11 11 12 11 11 12 11 11 10 10 10 9 9 9 9 9 9 10 10 9 9 9 9 8 8 7 7 6 7 5 6 6 4 3 3 6 8 9 7 4 4 5 5 7 7 6 5
8 10 11 12 12 12 11 11 10 9 9 8 9 8 8 8 9 9 8 8 9 10 10 9 8 9 9 8 9 9 10 10 12 12 10 11 11 10 12 12 12 12 11 12 12 11 11 11 11 10 10 9 9 9 9 9 10 10 10 9 10 10 8 8 6 6 7 7 8 8 7 6 7 8 7 5 2 7 8 7 7 5 4 5 6
8 9 10 12 12 12 11 11 10 10 9 8 8 8 9 9 9 9 8 8 8 9 9 8 9 9 12 12 12 11 12 11 10 10 11 11 10 11 11 12 13 13 12 12 12 12 11 11 11 11 10 10 9 9 10 10 9 9 9 9 9 8 9 7 7 5 6 7 8 9 9 9 8 7 6 8 9 4 4 6 6 7 8 8 7
9 10 11 12 12 11 12 11 10 10 9 8 9 9 10 9 9 9 8 8 8 8 8 9 9 10 11 13 12 13 14 14 12 11 10 10 11 11 10 10 12 12 12 12 12 12 11 11 11 11 11 11 10 10 10 9 8 9 10 10 9 8 9 7 6 7 5 5 6 7 8 9 9 9 9 8 8 10 9 7 7 7 6 6 7
10 11 12 12 13 12 11 11 10 10 9 9 10 10 10 10 9 8 9 9 8 9 9 9 10 10 11 11 12 12 13 13 12 12 11 9 11 10 10 10 11 12 12 12 12 13 12 12 12 12 11 11 10 10 10 10 11 10 10 10 9 9 8 8 6 6 6 6 6 6 5 6 7 7 8 8 7 8 11 8 8 7 7 6 7
8 10 11 11 11 10 10 10 10 9 8 9 10 10 11 10 9 10 10 8 8 9 9 10 11 10 10 12 15 14 12 12 11 12 12 11 11 12 11 10 10 10 12 13 12 13 13 12 12 13 13 12 10 11 11 11 11 11 11 10 10 10 9 8 8 6 7 7 7 6 5 5 5 6 6 6 8 9 10 9 9 9 9 5 5
9 11 11 11 10 11 10 11 11 9 8 10 10 11 10 10 11 11 10 9 10 10 9 10 10 10 11 12 14 16 16 15 14 13 12 13 12 12 12 11 10 11 10 11 13 13 13 13 12 12 12 11 11 11 11 11 10 10 10 11 11 11 9 9 9 9 6 7 8 7 8 7 6 6 5 5 7 7 7 9 8 8 9 10 6
10 11 12 13 13 12 11 11 11 10 10 11 11 11 11 11 11 13 12 11 11 11 10 9 9 10 11 13 14 15 15 13 14 16 15 15 15 13 11 11 11 10 10 10 11 12 12 12 13 13 12 12 12 11 11 10 10 10 10 10 10 11 11 10 9 8 9 6 8 8 8 8 8 7 6 6 6 7 7 9 7 8 9 7 7
12 13 13 12 12 12 12 11 10 9 10 12 13 12 12 12 12 12 13 13 12 12 12 11 10 10 10 12 13 12 13 14 15 16 15 14 13 14 13 12 10 10 11 11 11 13 12 12 12 13 12 12 12 12 11 12 10 10 10 11 10 11 11 11 8 10 10 8 7 8 8 8 8 7 7 7 5 5 6 7 7 7 9 9 7
12 13 12 11 11 11 11 10 9 9 11 12 13 12 12 11 12 12 13 12 13 13 13 13 11 12 11 11 11 11 12 13 13 14 15 14 14 15 14 12 11 11 11 12 11 12 12 12 12 13 13 12 12 12 12 11 11 10 10 11 11 10 10 12 11 11 10 11 9 7 7 7 8 7 7 7 6 5 6 6 7 6 8 10 8
12 12 13 13 13 12 10 9 9 9 11 12 12 13 13 12 12 13 14 14 13 12 12 13 12 12 11 11 11 10 11 11 12 12 14 15 14 15 15 12 10 10 11 10 11 12 12 12 13 13 12 12 12 12 11 11 11 10 9 10 10 10 11 10 10 11 9 10 9 8 7 7 7 7 7 7 7 6 6 6 6 8 7 6 7
13 14 14 15 15 13 12 9 9 10 12 12 14 13 13 13 15 15 15 14 13 13 12 12 11 11 12 13 13 13 12 12 11 12 13 14 15 15 15 12 10 9 9 10 11 11 11 12 12 12 12 12 12 12 12 11 11 11 10 10 11 8 10 12 11 11 11 12 11 10 8 8 8 8 7 7 7 7 5 4 5 6 9 9 5
14 15 14 16 15 15 13 11 10 12 13 14 15 14 14 14 14 16 17 15 15 14 13 12 12 12 12 12 12 12 14 15 14 15 15 15 15 14 13 12 11 10 9 9 10 11 11 11 12 12 12 12 12 12 12 11 11 11 10 10 11 10 10 11 10 10 10 11 10 12 9 8 7 8 8 7 6 5 5 4 5 6 5 7 8
15 15 14 16 16 16 13 14 17 19 19 19 19 16 15 15 17 18 15 17 16 15 14 13 13 12 12 11 11 12 13 14 15 16 14 14 14 13 13 12 11 10 9 9 10 11 11 12 11 11 11 12 12 12 12 12 11 10 11 11 10 10 10 9 10 10 10 9 10 10 9 9 7 7 7 7 6 6 5 5 4 5 5 7 7
15 16 16 16 16 15 15 16 18 18 18 20 20 20 19 17 16 16 18 15 16 15 15 14 14 11 10 11 12 12 12 13 13 14 15 14 14 14 14 13 11 10 10 10 10 11 11 11 11 11 11 12 12 12 11 11 11 10 11 10 11 11 10 11 10 10 10 10 11 11 11 9 8 8 7 6 6 6 5 5 5 5 5 6 8
16 18 17 17 17 17 17 17 18 16 16 16 19 18 20 20 20 19 19 18 16 18 17 17 16 16 16 15 13 13 13 13 13 13 14 15 15 15 14 13 12 10 10 11 11 11 12 12 11 11 12 11 12 11 11 11 11 11 10 10 10 12 12 12 11 10 9 10 11 11 11 9 9 7 7 7 6 6 6 6 5 5 6 7 6
17 17 18 18 17 16 16 14 13 15 16 16 17 18 17 17 19 19 21 21 20 20 19 19 19 18 20 20 18 15 15 13 14 14 14 15 14 14 14 12 10 11 10 11 12 12 12 12 12 11 12 12 12 12 11 11 11 11 11 11 11 11 12 11 11 12 11 11 10 10 10 10 9 8 7 6 7 6 6 6 5 5 6 6 7
19 19 17 15 17 19 19 17 16 19 20 23 20 18 18 20 19 19 20 19 22 20 19 19 19 18 21 20 22 18 15 14 15 14 14 14 14 14 14 11 11 11 11 12 12 11 11 12 11 12 12 12 12 12 11 10 11 12 12 9 10 11 12 12 11 11 12 10 11 10 10 10 9 8 7 7 6 6 7 6 6 6 6 6 6
20 17 15 15 17 19 19 20 21 22 22 21 21 21 20 19 19 15 15 16 19 20 19 19 19 21 24 23 20 20 20 20 16 14 14 14 14 14 12 12 11 10 11 11 11 11 11 12 11 11 11 12 12 11 11 11 11 12 12 11 10 11 12 12 12 12 11 10 10 10 11 10 8 9 9 7 7 6 6 7 8 8 7 7 7
14 13 15 15 18 19 19 20 21 21 21 20 20 20 20 21 18 16 17 18 17 17 19 19 19 22 23 23 21 21 22 20 16 14 15 14 13 13 11 12 11 10 10 11 12 12 11 12 12 12 12 11 12 11 10 10 11 11 12 12 11 11 11 11 11 10 10 10 12 11 12 12 10 10 10 9 9 8 8 8 8 8 7 8 7
16 17 17 18 19 20 20 20 21 20 21 21 20 19 19 18 18 20 19 20 16 15 16 16 18 19 21 20 20 21 21 20 17 12 15 15 14 13 11 11 11 11 11 10 10 11 11 11 11 12 12 11 11 11 11 11 11 11 11 11 11 10 10 11 11 12 11 11 12 13 12 11 11 11 11 11 9 10 10 9 9 8 8 7 6
16 18 19 21 19 19 21 22 22 20 20 20 21 20 19 19 20 20 18 18 18 16 15 16 16 18 20 22 20 20 21 19 14 11 13 14 13 12 12 10 11 11 11 10 11 10 10 11 11 11 11 11 11 11 11 11 11 11 10 10 10 11 12 12 12 12 11 11 12 13 13 12 11 11 11 10 10 10 10 9 9 8 7 6 7
18 21 20 20 22 24 24 23 21 23 24 23 22 21 20 21 21 21 21 21 19 17 18 18 19 20 22 23 22 21 20 14 10 11 12 12 12 11 12 11 10 11 11 11 11 11 10 10 11 11 11 11 11 11 10 11 11 11 12 11 12 12 12 11 11 11 11 11 12 12 12 10 10 10 10 9 8 8 8 9 9 8 7 7 7
21 22 23 23 23 23 24 24 24 22 23 23 22 21 21 22 23 23 20 18 16 18 18 18 21 23 22 22 20 19 11 7 9 10 12 12 11 10 11 11 10 11 11 11 11 11 10 9 10 10 10 9 9 9 10 10 10 11 10 11 11 11 11 11 11 11 11 11 11 11 11 10 10 9 8 7 7 9 8 8 8 8 7 7 7
22 22 23 22 23 23 24 24 23 24 25 26 23 22 22 22 21 20 19 19 19 19 19 22 23 22 23 20 17 10 3 7 9 11 12 12 11 11 10 10 9 9 9 10 9 9 9 9 9 9 9 9 9 9 9 10 10 9 8 11 11 11 11 10 10 11 11 11 11 11 11 11 13 15 17 14 12 11 8 9 8 7 7 7 7
22 24 24 22 23 23 24 25 24 25 26 25 23 23 23 23 23 21 21 20 20 21 22 22 22 21 20 19 18 7 6 7 10 11 12 12 11 10 8 9 9 9 9 9 9 9 9 9 9 9 9 8 8 8 13 17 15 11 9 10 9 10 10 10 10 10 11 11 12 12 12 18 18 18 18 18 18 18 16 10 7 8 8 8 8
22 22 22 22 22 22 24 25 26 25 25 22 22 23 23 23 22 21 22 21 21 21 21 21 21 20 20 20 11 5 8 10 10 11 10 10 9 8 8 8 8 9 9 9 9 9 9 9 9 9 9 8 8 9 16 17 18 19 12 10 10 9 9 10 11 11 10 10 11 12 11 14 16 17 16 20 20 20 19 19 18 14 12 9 8
23 22 22 22 23 24 24 25 25 25 24 22 23 24 23 22 22 22 22 21 21 20 20 20 20 20 20 14 7 8 9 12 12 12 10 9 8 8 8 8 8 9 9 8 9 9 9 8 7 8 8 9 10 14 17 17 17 19 17 11 10 10 9 9 10 10 10 9 10 10 11 10 11 13 13 14 18 20 20 21 20 19 17 17 15
23 22 22 23 25 25 26 25 23 22 23 24 23 22 22 21 23 22 21 21 21 19 20 20 19 19 17 14 13 14 14 12 12 13 8 6 7 8 8 8 9 9 8 8 9 8 8 8 8 9 10 11 10 14 16 17 17 18 19 16 9 12 11 11 10 10 10 10 9 10 10 11 10 18 15 12 12 13 19 21 20 20 21 21 19
20 19 20 22 23 22 22 23 23 23 22 22 21 20 20 21 21 20 21 20 19 19 18 16 18 18 18 17 17 14 12 12 13 14 7 7 7 8 8 8 7 7 8 8 8 9 8 8 10 10 10 10 10 13 17 17 17 18 19 17 10 10 11 11 12 11 10 11 11 10 9 10 10 11 12 13 12 11 10 11 12 12 12 15 20
19 21 23 25 24 22 22 23 22 22 22 21 21 20 22 22 21 21 20 20 19 19 17 18 19 20 20 19 18 14 13 13 15 14 9 10 12 8 8 7 7 8 8 8 8 10 10 10 10 10 9 9 9 15 16 18 18 19 19 17 10 10 9 11 11 11 12 12 11 11 11 10 10 11 11 13 12 11 10 9 9 10 10 10 10
19 22 22 20 20 21 22 22 22 22 22 21 21 22 24 23 21 20 20 19 18 18 20 20 19 21 22 21 19 18 17 15 14 16 13 11 10 8 8 7 7 8 9 8 9 9 9 10 9 9 9 9 9 15 17 18 19 18 19 12 10 10 10 9 11 12 12 12 12 12 12 12 11 11 14 19 15 11 11 11 10 9 8 8 8
21 20 20 19 19 20 21 22 22 21 21 20 22 23 22 21 21 20 19 17 17 18 18 20 20 20 18 17 17 18 19 15 13 16 17 14 11 9 8 7 9 10 9 9 8 8 8 8 9 9 8 8 8 13 16 17 17 18 15 10 9 9 9 10 10 10 11 11 11 12 12 11 11 11 14 18 19 17 10 10 10 9 7 7 7
20 20 20 19 19 19 20 20 22 21 19 21 22 22 21 20 21 19 18 19 16 16 17 19 21 21 18 16 18 19 18 17 17 18 17 15 10 6 7 8 10 9 10 9 7 7 7 8 9 8 9 8 9 11 16 17 17 18 16 10 9 8 9 9 10 10 10 10 12 19 16 12 11 11 15 17 17 16 10 10 9 9 10 9 8
19 20 22 23 22 22 22 22 22 22 23 24 23 22 20 21 18 17 19 21 20 18 18 20 22 22 21 20 18 19 18 17 18 17 17 16 14 8 8 9 9 8 9 7 7 7 7 7 8 8 10 10 8 10 14 15 16 17 14 10 9 9 9 10 10 10 11 11 11 14 21 17 14 13 17 17 18 15 9 10 9 9 9 10 8
23 21 21 21 21 22 24 23 23 24 24 24 23 20 20 18 17 16 18 20 21 22 22 21 21 20 19 19 19 21 20 18 18 18 16 15 12 9 8 9 8 8 7 7 7 6 7 6 6 7 7 9 9 8 9 14 15 16 18 11 9 9 10 10 10 10 10 11 11 11 15 22 22 20 18 19 19 19 10 9 9 8 8 10 8
21 22 24 21 20 19 21 22 21 24 23 22 22 20 17 18 19 19 20 21 22 21 21 21 20 21 21 21 20 19 21 20 18 18 16 12 10 8 7 8 8 7 7 7 7 7 6 6 6 6 6 7 8 8 9 14 15 16 17 16 9 10 9 9 9 10 9 9 10 10 9 16 22 22 20 19 19 19 16 9 10 9 9 10 9
17 19 20 20 21 22 22 22 21 21 21 21 20 16 18 21 21 21 21 19 21 21 20 20 21 21 21 20 21 20 19 17 17 17 15 13 11 8 7 7 6 6 7 7 6 5 5 5 5 6 6 7 8 12 9 11 15 16 16 19 11 10 11 9 10 9 9 9 9 9 8 11 18 19 20 20 19 17 18 9 8 13 17 18 12
25 26 24 21 20 21 22 23 20 20 20 19 20 21 20 21 21 22 20 20 20 20 21 21 21 21 21 21 21 22 20 16 15 16 14 13 10 6 5 5 6 6 6 6 5 4 4 4 5 5 6 7 7 8 12 11 14 15 16 17 18 14 17 12 10 9 9 10 8 6 6 12 15 15 13 14 13 15 13 8 14 15 16 17 14
21 20 21 22 20 20 20 20 20 19 19 18 19 22 22 23 23 20 20 20 20 20 20 21 21 21 22 21 21 21 19 18 17 14 12 12 8 4 4 4 5 5 4 5 4 4 5 5 5 6 6 6 6 6 9 14 12 15 15 17 17 18 17 11 9 8 6 5 6 5 4 9 11 12 12 14 14 12 9 15 16 13 9 9 6
22 22 22 20 20 22 21 22 20 21 18 17 18 22 24 23 21 20 21 21 22 22 21 22 22 22 22 21 21 19 18 16 15 12 12 10 6 4 5 4 4 5 4 4 5 4 5 5 5 5 5 5 5 6 6 9 13 14 15 16 16 17 17 17 10 8 7 5 8 11 11 12 12 12 14 14 13 13 7 6 8 6 3 1 2
20 20 21 21 20 20 21 23 22 21 18 16 18 19 22 22 21 21 21 21 22 23 24 24 23 21 21 21 22 20 18 16 16 11 9 9 7 4 5 4 4 4 4 4 4 4 4 4 5 5 5 4 4 4 5 6 7 10 11 14 16 15 16 17 16 10 12 13 11 11 12 12 11 10 6 2 3 5 5 4 5 4 1 0 0
23 22 21 20 19 20 22 22 22 20 17 17 19 18 18 20 21 21 21 21 23 24 24 23 22 22 21 19 19 16 15 16 15 10 7 7 6 5 5 5 4 4 4 4 4 4 4 4 4 4 4 4 4 4 4 4 5 5 6 8 9 8 8 4 2 6 8 5 5 4 7 9 9 9 8 6 5 4 3 2 2 2 1 1 2
19 20 21 20 20 21 22 23 21 21 18 19 19 18 19 20 20 20 20 22 23 23 23 23 24 20 17 17 17 19 18 14 13 11 8 8 6 5 5 5 5 5 4 4 4 4 5 4 3 3 3 4 4 4 4 3 5 4 4 4 4 3 2 2 3 3 3 5 5 4 5 3 2 1 1 2 2 2 2 2 0 0 0 1 0
21 21 20 18 20 22 22 21 21 19 18 20 20 19 19 21 20 20 21 23 23 24 23 23 20 18 17 16 16 16 15 15 13 11 7 6 6 5 5 5 4 4 4 4 4 4 4 4 3 3 3 4 3 2 3 4 3 4 3 2 3 3 3 3 5 4 6 4 3 2 2 2 2 2 2 2 2 1 2 2 2 0 1 2 2
18 18 19 20 20 21 22 22 20 19 19 20 21 20 19 19 19 19 22 24 25 22 21 19 18 17 16 16 16 15 15 14 12 11 10 8 6 9 7 5 4 6 8 8 7 4 3 3 3 4 5 4 1 1 3 5 6 6 7 7 6 6 7 5 6 9 6 4 3 3 3 4 3 3 4 4 3 1 0 0 1 1 1 0 1
19 19 19 19 20 21 21 21 19 19 21 21 20 21 21 20 20 20 22 24 24 21 18 17 17 16 18 18 16 15 14 13 11 11 9 8 8 6 9 11 10 7 8 10 10 10 9 7 6 4 5 11 10 7 3 5 7 8 9 9 10 9 8 10 10 4 5 4 3 2 3 2 2 1 1 0 1 0 0 0 0 0 1 2 1
Wind_Direction
11 324 299 298 283 260 261 270 270 270 265 263 266 266 263 262 264 261 259 249 237 231 227 220 221 226 228 229 234 228 226 223 222 217 218 221 217 213 213 216 222 225 223 222 229 236 241 246 246 243 241 243 245 246 249 251 255 258 261 266 268 271 272 275 278 288 294 290 282 285 292 287 276 271 269 267 258 245 253 261 269 270 268 280 290
338 356 15 38 48 204 238 241 259 290 296 290 277 275 273 270 264 265 264 254 240 235 233 228 224 226 229 231 230 234 227 218 220 216 217 216 214 212 209 215 219 219 222 220 226 231 234 236 237 239 236 240 241 245 247 247 244 248 254 259 258 260 263 267 278 294 282 286 306 306 296 277 272 255 255 251 253 252 259 277 269 272 280 283 291
19 21 20 10 5 1 308 274 291 287 302 303 297 294 289 277 269 267 262 258 249 240 237 238 237 234 234 243 240 244 239 236 226 224 220 214 213 210 210 214 217 218 219 218 221 226 229 232 235 235 234 234 239 239 239 240 239 243 244 249 258 257 263 263 263 262 281 295 293 288 291 318 307 283 232 227 256 267 265 267 272 272 276 279 283
24 19 9 359 353 347 350 347 336 318 311 318 330 317 299 281 275 268 264 257 254 248 240 244 247 250 246 248 252 253 255 248 239 235 229 218 218 214 215 214 215 217 216 215 218 220 224 228 232 233 233 230 233 238 237 234 233 235 235 238 244 258 258 260 255 255 258 290 294 289 309 300 305 280 11 323 313 298 282 267 270 278 281 282 290
28 9 358 352 350 351 350 350 352 344 338 344 337 327 310 296 288 282 275 266 258 255 248 245 249 249 248 248 248 255 255 249 246 237 227 228 226 220 220 213 214 216 215 215 215 217 218 223 228 231 230 229 229 233 237 236 234 233 233 235 236 243 253 258 263 259 256 244 262 290 287 261 268 324 339 300 275 270 261 263 268 280 283 274 273
25 7 358 355 353 349 349 350 353 352 353 354 342 329 319 313 308 299 282 271 264 260 255 247 240 243 243 240 238 235 240 233 231 233 226 219 219 220 219 213 212 214 216 215 216 214 215 219 223 227 229 229 227 232 235 236 234 233 232 231 236 240 250 260 260 260 253 247 238 246 266 284 304 305 315 297 315 297 290 294 288 280 275 279 280
21 6 359 355 353 350 347 349 346 346 347 347 341 339 335 325 318 309 298 287 276 265 255 245 242 244 244 246 248 249 253 250 242 237 231 229 220 215 213 210 209 211 214 214 215 215 216 217 219 221 226 227 228 229 232 233 233 231 230 230 233 234 234 242 248 254 257 245 237 239 246 252 267 285 279 299 299 282 296 297 293 295 294 288 283
13 1 356 355 351 347 344 343 342 340 339 338 336 336 336 335 331 321 310 296 279 269 256 238 243 248 252 251 251 254 253 259 257 254 242 231 224 214 209 208 205 207 212 213 214 216 214 215 215 218 220 224 226 228 229 230 230 229 229 230 230 230 229 231 237 242 242 252 236 236 238 246 251 255 261 267 277 293 291 286 282 283 288 289 283
10 360 355 352 347 344 341 338 338 341 350 346 341 337 330 327 324 315 307 300 289 272 257 245 241 247 255 260 260 256 258 261 261 258 256 238 228 215 210 209 206 207 209 212 214 214 214 214 213 214 216 219 221 227 227 227 229 228 222 219 220 225 226 226 232 237 238 243 253 248 246 252 256 252 255 250 260 276 284 289 295 300 294 287 290
6 358 353 349 343 339 339 335 337 344 346 344 342 338 335 324 314 315 309 309 303 288 266 253 245 247 253 255 259 263 261 262 258 254 249 240 230 224 220 216 213 209 209 211 214 215 215 214 214 215 216 216 218 221 222 223 225 225 223 218 220 224 229 225 222 230 238 245 246 261 260 249 239 244 244 248 254 253 271 286 294 300 300 294 301
0 358 354 347 341 338 340 336 338 342 345 341 340 337 332 327 320 312 314 314 314 304 281 267 255 250 253 257 259 264 265 265 264 259 250 243 237 229 223 220 216 214 207 210 212 212 213 216 217 215 215 215 215 216 217 218 219 219 221 221 220 221 222 225 223 223 233 242 247 249 250 250 254 256 252 243 246 259 269 276 288 296 299 301 296
359 355 346 342 340 339 340 339 341 343 342 340 337 333 329 327 326 325 324 321 319 318 302 270 262 258 257 260 264 266 269 269 265 263 257 250 245 236 226 221 219 213 211 209 208 209 211 215 217 217 216 214 213 213 214 214 216 215 215 217 221 223 224 224 223 224 223 235 241 242 247 253 258 257 261 261 262 269 279 286 290 301 295 284 297
355 349 341 339 338 337 338 339 340 344 339 337 334 329 325 326 326 328 329 334 330 324 318 298 268 259 258 263 266 268 268 268 267 266 263 259 255 248 238 223 211 211 210 210 209 203 206 212 213 214 215 215 213 211 212 212 214 213 213 215 216 217 219 221 223 219 218 224 232 238 244 252 252 256 262 264 263 261 268 283 283 292 291 298 300
351 343 339 336 333 334 336 337 340 339 336 334 330 326 327 326 329 329 328 330 327 325 324 319 297 274 272 267 265 268 269 267 265 265 263 260 258 256 248 231 213 210 207 210 207 203 205 210 213 215 215 215 214 213 211 211 212 211 211 213 215 216 218 219 223 224 222 223 230 237 239 242 250 254 257 259 257 259 260 266 284 284 286 291 296
349 342 338 335 334 333 337 340 341 335 332 330 328 328 331 331 331 329 327 327 324 323 319 316 316 307 287 275 270 263 263 263 264 264 265 262 257 256 252 233 224 219 213 210 205 205 205 209 213 217 215 214 213 212 211 211 210 210 213 215 217 215 217 218 220 220 222 222 223 231 240 243 246 251 255 254 255 255 260 266 276 293 289 280 293
347 342 339 339 338 337 338 341 335 329 327 328 332 338 339 337 334 331 327 323 320 318 316 314 310 306 303 291 282 276 269 264 263 263 261 259 257 254 248 231 226 221 217 208 208 204 206 209 212 216 216 215 214 213 210 208 208 209 212 215 217 214 216 216 220 219 220 221 225 227 235 242 242 244 247 253 255 258 259 257 261 265 285 294 293
347 343 342 340 340 336 340 336 330 328 333 338 341 340 335 332 329 325 321 316 315 316 314 313 312 310 305 301 291 283 280 273 266 262 262 262 260 257 247 233 225 219 211 208 204 206 206 209 210 212 216 216 216 215 211 209 207 209 211 213 215 214 216 219 218 220 217 217 220 222 227 235 239 241 247 247 252 257 256 256 256 266 272 279 296
342 339 338 337 335 338 340 334 333 335 337 335 332 326 321 319 320 325 313 307 312 317 318 317 315 309 304 301 296 285 279 279 277 272 267 264 261 256 246 238 226 213 206 203 205 205 205 206 209 212 213 216 215 216 214 212 209 212 213 214 212 213 217 220 222 223 223 217 217 219 220 228 232 234 237 240 243 247 253 249 248 257 261 268 277
340 341 341 340 338 341 346 340 335 333 331 327 325 324 323 322 317 315 315 313 310 316 318 315 311 308 299 296 298 297 290 280 277 278 275 266 258 255 242 236 226 211 207 203 201 203 206 202 204 210 212 215 216 214 214 212 211 215 216 216 213 212 215 219 221 221 222 220 219 218 218 222 223 227 232 236 237 244 245 245 246 239 243 252 267
337 337 337 337 343 350 349 336 329 328 324 319 320 320 316 318 315 314 315 315 311 309 312 310 310 308 304 299 296 296 292 288 283 279 276 269 260 257 245 236 224 210 207 202 202 205 203 203 202 205 211 212 215 214 213 213 213 216 217 218 214 211 214 216 216 218 219 220 220 219 218 218 217 220 222 225 233 234 238 245 245 248 249 256 256
338 337 338 343 346 342 332 326 323 320 319 319 321 318 315 313 314 316 316 314 313 311 310 312 315 311 309 307 303 302 301 299 296 289 281 274 263 257 255 239 222 215 205 206 206 204 204 203 202 204 209 211 213 215 212 214 216 219 220 220 219 217 216 218 217 216 214 218 219 220 220 220 218 218 219 219 221 225 231 238 246 247 249 252 253
336 339 345 352 341 332 332 329 325 326 326 325 324 319 319 319 317 316 314 311 312 309 311 311 310 311 308 308 308 306 304 309 306 299 286 277 266 256 255 235 221 214 212 213 207 204 204 203 202 207 211 213 214 214 214 213 215 220 222 218 220 221 219 220 219 219 214 212 214 218 220 218 218 220 222 223 220 218 218 227 234 240 248 246 241
335 347 355 342 334 333 331 329 328 329 328 326 325 324 321 319 315 309 309 306 306 308 310 309 309 309 309 310 307 307 309 309 305 302 291 279 271 261 248 232 221 216 216 214 208 205 202 202 205 207 211 213 216 215 215 216 217 219 220 220 220 220 222 221 220 220 218 213 212 217 220 218 213 215 216 223 228 226 222 223 231 235 241 244 244
358 359 339 334 333 334 332 331 329 328 327 326 324 322 321 319 314 312 310 308 308 304 304 307 309 305 306 309 308 304 304 305 302 302 298 285 271 266 246 236 223 217 217 215 210 206 203 205 207 208 210 211 214 219 217 217 221 221 221 223 221 222 223 223 223 224 222 221 222 221 221 219 213 213 216 217 219 224 225 231 238 243 240 241 252
353 340 336 335 335 334 332 329 327 324 324 324 323 321 322 320 320 319 318 317 307 301 303 306 307 307 305 302 301 300 297 299 301 299 302 295 280 265 254 231 225 222 218 211 209 205 208 208 207 209 212 212 213 216 218 218 220 223 225 224 224 223 226 229 231 231 227 225 225 223 222 217 215 216 217 218 215 217 222 226 230 229 233 242 243
338 337 336 336 334 330 331 331 329 328 327 326 325 325 325 323 319 319 318 316 308 304 301 303 303 300 302 302 302 300 296 296 302 308 308 299 284 265 249 230 221 219 214 211 206 203 205 208 209 211 212 214 215 215 217 220 220 221 225 227 230 234 233 233 233 232 230 226 225 223 221 216 215 213 212 213 214 214 214 221 224 225 223 225 231
337 335 335 333 330 331 330 330 328 327 328 327 326 325 322 320 317 317 316 314 310 307 304 302 302 302 304 305 304 301 297 300 307 309 305 297 285 258 243 232 217 215 214 212 207 203 201 204 209 210 211 213 215 217 217 218 218 225 231 231 231 231 233 233 233 231 229 226 223 222 218 216 213 211 212 211 207 210 212 214 220 221 227 229 230
336 334 333 330 328 331 333 332 332 333 332 330 328 324 322 322 321 320 317 314 310 305 303 302 305 305 305 306 306 302 315 318 313 304 300 295 285 259 245 239 223 216 214 212 207 202 202 201 206 209 211 213 214 217 218 218 224 227 224 227 227 230 232 232 229 225 223 225 226 223 219 218 217 211 208 211 209 207 206 213 215 217 218 219 227
336 332 331 329 331 333 334 334 334 333 332 329 325 323 323 322 321 319 317 316 314 309 308 310 309 308 308 308 308 316 341 321 315 307 302 297 282 259 242 233 222 217 213 209 210 200 199 201 203 207 208 212 213 215 218 224 224 221 219 224 226 228 231 230 228 226 222 221 223 225 223 220 218 218 214 210 211 207 201 205 211 211 213 216 219
335 331 330 331 333 335 335 334 332 330 328 327 326 326 325 324 322 322 321 320 320 316 314 312 311 312 312 311 310 316 321 320 313 309 306 296 281 261 241 225 218 213 210 207 205 201 199 201 202 205 206 209 214 225 232 225 219 216 213 218 223 227 228 229 231 228 226 224 223 221 223 223 222 220 218 214 211 209 208 210 205 202 209 209 215
331 329 331 332 334 334 333 332 329 329 328 328 329 325 324 322 322 322 321 321 321 318 316 315 315 314 313 311 315 325 318 308 306 311 306 290 272 255 235 223 217 211 210 205 199 197 198 199 201 201 204 208 219 228 225 222 220 214 206 208 212 222 228 232 233 233 233 229 223 221 221 222 221 221 219 217 215 215 217 221 223 219 210 207 206
331 332 334 335 335 334 335 332 331 329 329 330 328 325 323 322 323 323 322 321 320 320 318 317 316 313 312 322 331 313 300 306 309 303 296 288 265 245 230 225 215 211 209 203 198 197 196 195 194 197 208 221 226 223 222 221 220 222 217 201 203 212 221 229 231 230 232 232 229 222 221 221 220 219 216 218 219 220 223 225 226 225 223 217 216
333 335 339 338 333 332 331 331 331 329 327 327 326 323 322 323 322 321 320 319 318 318 318 314 320 332 335 327 311 305 303 305 311 315 292 274 251 237 232 222 215 210 203 199 198 192 193 191 193 199 214 221 221 221 221 221 223 226 228 225 197 199 203 211 219 229 232 232 233 230 223 218 218 216 214 213 214 220 225 228 228 230 229 227 224
333 338 338 334 331 330 330 330 327 325 324 323 321 320 321 321 319 319 318 318 317 316 316 328 333 323 317 313 310 302 305 316 320 315 287 272 255 242 233 222 214 201 200 201 198 196 198 200 208 209 213 214 215 218 223 226 228 230 232 233 236 202 200 205 209 215 227 232 230 232 226 219 213 212 210 208 206 210 215 226 233 231 230 232 231
338 338 333 331 331 331 330 327 327 327 325 323 321 326 324 321 322 319 319 319 319 320 332 333 326 321 317 314 312 317 328 329 326 319 297 294 288 257 235 222 212 202 198 201 200 215 214 209 207 206 206 210 209 215 225 232 236 238 238 240 238 236 201 205 211 213 222 230 229 230 232 229 219 210 209 201 199 200 204 211 217 223 229 230 229
339 333 333 335 334 332 328 327 328 328 325 324 326 328 325 320 321 320 320 320 327 332 326 328 335 340 339 337 339 332 323 323 324 321 306 291 274 239 231 220 221 220 222 217 221 216 209 205 202 201 203 209 217 224 229 233 235 238 240 239 240 238 234 211 206 216 222 227 228 226 224 225 224 217 210 202 195 195 203 205 209 214 218 223 228
332 335 335 333 330 328 330 329 327 325 323 326 329 325 321 320 319 319 319 329 329 332 341 339 331 323 320 321 321 319 315 309 315 315 311 303 285 266 234 225 228 227 219 213 212 210 210 205 202 198 201 213 221 228 233 237 238 239 238 236 235 237 236 236 229 219 220 223 225 221 223 221 221 221 214 210 210 201 192 197 205 207 204 216 226
335 335 331 331 331 331 332 330 324 322 327 331 327 323 320 320 320 326 337 332 339 339 333 330 322 315 309 314 313 308 302 301 305 306 304 302 280 242 239 228 225 218 218 213 208 209 211 208 204 201 203 216 226 230 234 238 242 241 237 233 232 229 230 235 235 231 230 231 230 232 226 225 226 223 219 218 214 203 181 188 198 204 207 215 226
337 335 333 335 336 336 334 331 328 329 335 333 327 325 323 321 332 340 338 332 327 325 327 323 319 314 311 312 311 305 299 298 300 302 301 296 287 252 242 231 220 218 216 212 205 208 210 211 211 210 212 218 228 235 237 241 240 240 237 231 226 225 227 226 228 228 226 228 230 230 230 225 223 225 220 218 215 205 178 175 184 191 203 214 222
337 336 338 334 334 336 334 334 334 334 334 329 327 324 327 336 335 335 333 328 327 323 322 320 318 318 316 315 312 308 304 302 302 302 300 295 291 268 241 215 213 210 209 207 206 212 209 212 209 206 217 226 231 232 232 240 244 242 235 226 222 220 220 225 223 226 222 219 224 228 226 225 221 220 221 220 212 209 196 172 182 188 193 213 206
338 337 338 336 338 338 332 332 335 332 330 328 326 330 340 337 334 331 329 329 325 321 321 322 320 319 317 313 313 312 311 309 307 303 297 299 294 266 232 211 205 206 202 205 208 209 204 211 215 218 219 222 224 233 239 244 246 241 235 228 215 216 218 221 226 221 226 223 216 220 224 221 220 219 220 216 211 211 209 181 187 201 203 218 209
337 339 339 336 335 332 331 332 331 329 328 327 327 339 336 332 326 322 326 327 325 322 319 318 316 313 313 312 309 307 307 307 305 302 302 303 295 259 230 206 202 201 198 200 200 194 206 212 221 227 233 236 237 236 238 243 245 241 234 228 220 211 212 222 222 223 222 227 228 216 210 211 213 219 218 211 209 213 218 218 207 207 215 224 228
340 339 340 338 332 332 333 331 330 331 329 326 334 333 328 326 324 324 325 324 322 320 319 318 314 313 313 311 309 308 308 307 300 298 304 303 293 245 215 200 202 198 187 177 179 196 208 225 235 241 239 237 237 239 239 239 243 244 239 234 229 219 214 211 223 225 221 220 223 212 201 207 208 206 204 209 214 221 231 242 244 247 251 252 245
333 333 332 333 331 331 328 328 329 329 327 330 336 329 327 323 322 324 323 322 321 320 319 317 315 315 313 312 311 310 308 305 299 301 311 303 278 226 205 209 195 191 186 188 201 198 220 235 242 249 251 249 243 234 237 239 239 240 239 235 232 226 221 221 219 235 234 217 212 206 201 208 202 206 213 223 230 230 233 244 251 257 264 261 260
331 332 333 334 334 329 328 328 330 328 327 331 336 330 323 323 324 326 326 325 324 323 321 318 317 314 313 311 310 308 307 304 305 311 312 303 267 214 227 213 191 207 202 197 206 201 215 232 239 250 259 258 242 231 231 239 237 234 233 232 229 228 227 221 219 227 231 222 220 220 217 219 220 219 224 228 233 241 221 136 111 101 128 188 195
330 330 332 334 331 329 329 327 327 328 327 333 336 331 325 323 325 326 326 325 325 324 322 320 318 314 311 310 309 309 308 309 306 303 304 300 279 237 236 225 207 213 209 207 214 212 220 234 244 256 262 260 255 242 233 232 235 228 227 228 227 227 231 235 235 223 213 216 218 221 224 225 228 227 223 190 130 115 113 111 110 96 88 172 215
332 332 334 333 333 332 330 329 326 327 327 333 335 329 324 324 325 325 326 326 326 324 322 320 317 314 312 311 311 312 313 313 313 307 303 297 278 254 238 229 220 214 211 211 213 223 226 234 247 252 258 267 247 241 238 223 205 216 209 213 218 221 223 222 250 206 204 212 205 141 104 103 97 104 110 119 117 107 116 125 124 131 140 170 215
329 330 333 329 332 333 328 327 326 326 327 331 332 329 327 327 326 327 326 327 326 325 322 319 316 315 314 315 314 313 313 315 313 310 304 305 281 254 249 239 228 221 214 217 212 223 235 233 244 250 250 246 246 237 225 207 189 202 200 177 184 203 201 214 195 192 150 125 114 98 90 86 96 97 147 156 159 140 139 151 143 109 141 163 189
329 332 331 329 332 330 327 326 325 326 329 329 328 327 328 329 329 328 329 328 327 325 321 317 317 317 316 317 316 316 316 315 316 310 299 292 289 282 263 258 244 234 231 232 228 232 238 246 237 246 237 238 244 225 212 222 204 204 214 209 188 197 212 214 217 185 99 108 120 167 231 196 183 190 191 206 180 179 160 119 121 218 228 202 205
329 329 327 327 329 328 326 326 324 328 331 329 326 326 327 328 328 328 330 329 328 325 323 322 322 320 318 319 320 319 318 316 317 318 316 304 276 269 260 250 256 232 235 231 228 238 237 237 242 248 261 265 229 232 199 215 231 238 238 239 238 219 200 213 202 195 158 172 186 212 219 231 231 225 224 229 228 208 121 144 132 179 255 251 241
329 329 329 330 327 326 324 323 325 328 329 327 326 326 327 328 329 330 331 329 328 325 324 322 323 322 321 322 323 322 320 323 324 323 316 310 310 302 280 264 247 239 234 243 248 239 234 230 245 258 262 266 285 301 296 238 230 239 234 230 228 218 205 202 207 191 152 168 180 197 224 229 238 245 244 84 66 57 311 81 126 118 229 237 221